Simultaneous Nadir Overpasses (SNOs) Predictions

Prediction of SNOs between METOP-B and NOAA-19 Satellite Orbit:

Table of predicted SNOs for the next 14.0 days since TLE Epoch: 10/3/2020
Index Date (METOP-B) Time (METOP-B) Lat,Lon (METOP-B) SZA (METOP-B ) Date (NOAA-19) Time (NOAA-19) Lat,Lon (NOAA-19) SZA (NOAA-19 ) Distance(km) Time Diff (sec)
1 10/10/2020 05:27:41 80.20, 122.65 88.10 10/10/2020 05:26:32 80.21, 122.74 88.09 1.83 69
2 10/10/2020 06:18:23 -80.20, -70.10 91.90 10/10/2020 06:17:30 -80.21, -70.14 91.91 1.93 53
3 10/10/2020 07:09:03 80.19, 97.19 88.11 10/10/2020 07:08:33 80.22, 97.08 88.11 3.20 30
4 10/10/2020 07:59:45 -80.19, -95.55 91.89 10/10/2020 07:59:30 -80.20, -95.47 91.88 2.41 15
5 10/10/2020 08:50:25 80.18, 71.73 88.12 10/10/2020 08:50:33 80.21, 71.74 88.14 2.45 8
6 10/10/2020 09:41:06 -80.20,-120.70 91.84 10/10/2020 09:41:30 -80.19,-120.80 91.85 2.29 24
7 10/10/2020 10:31:46 80.20, 46.59 88.18 10/10/2020 10:32:33 80.20, 46.41 88.17 3.44 47
